#timestamp,LO_Frequency,Hit,StdDev 
1652666415.1,286046998.7,N
1652666435.9,286046999.1,N
1652666455.7,286046999.0,N
1652666475.6,286046999.4,N
1652666495.4,286046999.5,N
1652666515.2,286046999.5,N
1652666535.1,286046996.6,Y
1652666536.0,286046996.6,P
1652666555.8,286046998.9,N
1652666575.6,286047000.6,N
1652666595.5,286046998.6,N
1652666615.3,286047000.9,N
1652666635.2,286047000.0,N
1652666655.9,286047000.5,N
1652666675.7,286046998.1,N
1652666695.6,286047000.7,N
1652666715.4,286046998.7,N
1652666735.2,286046999.4,N
1652666755.1,286046998.3,N
1652666756.0,286046998.3,N
1652666775.8,286046998.4,N
1652666795.7,286046999.5,N
1652666815.5,286046999.6,N
1652666835.3,286046997.6,N
1652666855.2,286046997.4,N
1652666875.0,286046997.4,N
1652666875.9,286046997.4,N
1652666895.7,286046998.9,N
1652666915.6,286046999.5,N
1652666935.4,286046997.0,N
1652666955.3,286046997.8,N
1652666975.1,286046996.9,N
1652666976.0,286046996.9,N
1652666995.8,286046997.5,N
1652667015.7,286046997.6,N
1652667035.5,286046995.1,Y
1652667055.4,286046996.9,P
1652667075.2,286046999.5,N
1652667095.0,286046999.0,N
1652667095.9,286046999.0,N
1652667115.8,286047000.9,N
1652667135.6,286046999.5,N
1652667155.4,286046999.2,N
1652667175.3,286046996.5,Y
1652667195.1,286046998.7,P
1652667215.9,286046996.7,P
1652667235.7,286046999.5,N
1652667255.5,286046999.2,N
1652667275.4,286046998.2,N
1652667295.2,286047000.0,N
1652667315.0,286047000.0,N
1652667315.9,286047000.0,N
1652667335.8,286046999.9,N
1652667355.6,286047002.8,N
1652667375.5,286047002.5,N
1652667395.3,286047001.3,N
1652667415.1,286047001.6,N
1652667435.9,286047001.8,N
1652667455.7,286047004.0,N
1652667475.6,286047003.4,N
1652667495.4,286047003.5,N
1652667515.2,286047003.7,N
1652667535.1,286047003.5,N
1652667536.0,286047003.5,N
1652667555.8,286047003.9,N
1652667575.6,286047003.2,N
1652667595.5,286047004.2,N
1652667615.3,286047001.3,N
1652667635.2,286047004.0,N
1652667655.9,286047004.2,N
1652667675.7,286047003.7,N
1652667695.6,286047004.3,N
1652667715.4,286047001.5,N
1652667735.2,286047001.5,N
1652667755.1,286047001.3,N
1652667756.0,286047001.3,N
1652667775.8,286047001.4,N
1652667795.7,286047004.3,N
1652667815.5,286047004.3,N
1652667835.3,286047001.4,N
1652667855.2,286047004.4,Y
1652667875.0,286047000.0,P
1652667875.9,286047000.0,N
1652667895.7,286047002.6,N
1652667915.6,286047002.2,N
1652667935.4,286047002.5,N
1652667955.3,286047002.8,N
1652667975.1,286047002.6,N
1652667976.0,286047002.6,N
1652667995.8,286046999.7,N
1652668015.7,286046999.8,N
1652668035.5,286047002.8,N
1652668055.3,286047001.9,N
1652668075.2,286046999.9,N
1652668095.0,286047000.2,N
1652668095.9,286047000.2,N
1652668115.8,286047000.5,N
1652668135.6,286047000.0,N
1652668155.4,286047001.2,N
1652668175.3,286046999.7,N
1652668195.1,286047000.8,N
1652668215.8,286047000.5,N
1652668235.7,286046999.9,N
1652668255.5,286047001.4,N
1652668275.4,286047001.8,N
1652668295.2,286047002.2,N
1652668315.0,286047001.7,N
1652668315.9,286047001.7,N
1652668335.8,286047002.7,N
1652668355.6,286047000.1,N
1652668375.5,286047002.2,N
1652668395.3,286047001.9,N
1652668415.1,286047001.5,N
1652668435.9,286047003.9,Y
1652668455.7,286047002.0,P
1652668475.5,286047002.2,P
1652668495.4,286047000.1,N
1652668515.2,286047000.2,N
1652668535.1,286047000.2,N
1652668536.0,286047000.2,N
1652668555.8,286047001.1,N
1652668575.6,286047000.8,N
1652668595.5,286047000.5,N
1652668615.3,286047000.1,N
1652668635.1,286047000.2,N
1652668655.9,286047000.3,N
1652668675.7,286047000.0,N
1652668695.6,286046999.9,N
1652668715.4,286047000.1,N
1652668735.2,286046999.8,N
1652668755.1,286047002.4,Y
1652668756.0,286047002.4,P
1652668775.8,286046999.7,N
1652668795.7,286047002.8,N
1652668815.5,286047000.2,N
1652668835.3,286047001.1,N
1652668855.2,286046999.2,N
1652668875.9,286046998.1,N
1652668895.7,286047001.0,N
1652668915.6,286046998.4,N
1652668935.4,286046999.5,N
1652668955.3,286046998.9,N
1652668975.1,286046999.1,N
1652668976.0,286046999.1,N
1652668995.8,286046998.8,N
1652669015.7,286047001.1,N
1652669035.5,286046999.9,N
1652669055.3,286047001.2,N
1652669075.2,286047000.0,N
1652669095.0,286047000.3,N
1652669095.9,286047000.3,N
1652669115.8,286047000.9,N
1652669135.6,286047000.0,N
1652669155.4,286047001.1,N
1652669175.3,286047000.3,N
1652669195.1,286047000.6,N
1652669215.8,286047000.5,N
1652669235.7,286047000.1,N
1652669255.5,286046999.9,N
1652669275.4,286046999.8,N
1652669295.2,286047001.9,N
1652669315.0,286046999.8,N
1652669315.9,286046999.8,N
1652669335.8,286047002.8,N
1652669355.6,286047002.7,N
1652669375.5,286047002.8,N
1652669395.3,286046999.8,N
1652669415.1,286047000.9,N
1652669435.9,286047001.1,N
1652669455.7,286046998.5,N
1652669475.5,286047001.1,N
1652669495.4,286046998.5,N
1652669515.2,286047000.7,N
1652669535.1,286046999.9,N
1652669536.0,286046999.9,N
1652669555.8,286047000.9,N
1652669575.6,286047000.4,N
1652669595.5,286047001.0,N
1652669615.3,286047000.2,N
1652669635.2,286046999.8,N
1652669655.9,286047000.4,N
1652669675.7,286047000.0,N
1652669695.6,286047000.7,N
1652669715.4,286047001.4,N
1652669735.2,286047002.7,N
1652669755.1,286047000.2,N
1652669756.0,286047000.2,N
1652669775.8,286047002.8,N
1652669795.7,286047000.0,N
1652669815.5,286046999.9,N
1652669835.3,286047000.4,N
1652669855.2,286047002.2,N
1652669875.9,286046999.7,N
1652669895.7,286047000.2,N
1652669915.6,286047002.5,N
1652669935.4,286047001.9,N
1652669955.3,286047001.6,N
1652669975.1,286047001.8,N
1652669976.0,286047001.8,N
1652669995.8,286047002.2,N
